Time,TemperatureF,DewpointF,PressureIn,WindDirection,WindDirectionDegrees,WindSpeedMPH,WindSpeedGustMPH,Humidity,HourlyPrecipIn,Conditions,Clouds,dailyrainin,SolarRadiationWatts/m^2,SoftwareType,DateUTC
2013-01-19 00:00:00,35.0,22.0,-100.00,SSW,202,9.0,-999.0,59,-99.99,,,-99.99,0.000000,,2013-01-19 05:00:00,
2013-01-19 00:43:00,35.0,22.0,-100.00,SSW,202,9.0,-999.0,59,-99.99,,,-99.99,0.000000,,2013-01-19 05:43:00,
2013-01-19 00:53:00,35.0,22.0,-100.00,SSW,202,9.0,-999.0,59,-99.99,,,-99.99,0.000000,,2013-01-19 05:53:00,
2013-01-19 01:00:00,35.0,23.0,-100.00,SSW,202,8.0,-999.0,60,-99.99,,,-99.99,0.000000,,2013-01-19 06:00:00,
2013-01-19 01:43:00,35.0,23.0,-100.00,SSW,202,8.0,-999.0,60,-99.99,,,-99.99,0.000000,,2013-01-19 06:43:00,
2013-01-19 01:53:00,35.0,23.0,-100.00,SSW,202,8.0,-999.0,60,-99.99,,,-99.99,0.000000,,2013-01-19 06:53:00,
2013-01-19 02:00:00,35.0,24.0,-100.00,SSW,202,7.0,-999.0,61,-99.99,,,-99.99,0.000000,,2013-01-19 07:00:00,
2013-01-19 02:43:00,35.0,24.0,-100.00,SSW,202,7.0,-999.0,61,-99.99,,,-99.99,0.000000,,2013-01-19 07:43:00,
2013-01-19 02:53:00,35.0,24.0,-100.00,SSW,202,7.0,-999.0,61,-99.99,,,-99.99,0.000000,,2013-01-19 07:53:00,
2013-01-19 03:00:00,36.0,24.0,-100.00,SSW,202,7.0,-999.0,62,-99.99,,,-99.99,0.000000,,2013-01-19 08:00:00,
2013-01-19 03:43:00,36.0,24.0,-100.00,SSW,202,7.0,-999.0,62,-99.99,,,-99.99,0.000000,,2013-01-19 08:43:00,
2013-01-19 03:53:00,36.0,24.0,-100.00,SSW,202,7.0,-999.0,62,-99.99,,,-99.99,0.000000,,2013-01-19 08:53:00,
2013-01-19 04:00:00,35.0,25.0,-100.00,SW,225,7.0,-999.0,64,-99.99,,,-99.99,0.000000,,2013-01-19 09:00:00,
2013-01-19 04:43:00,35.0,25.0,-100.00,SW,225,7.0,-999.0,64,-99.99,,,-99.99,0.000000,,2013-01-19 09:43:00,
2013-01-19 04:53:00,35.0,25.0,-100.00,SW,225,7.0,-999.0,64,-99.99,,,-99.99,0.000000,,2013-01-19 09:53:00,
2013-01-19 05:00:00,37.0,26.0,-100.00,SW,225,9.0,-999.0,66,-99.99,,,-99.99,0.000000,,2013-01-19 10:00:00,
2013-01-19 05:43:00,37.0,26.0,-100.00,SW,225,9.0,-999.0,66,-99.99,,,-99.99,0.000000,,2013-01-19 10:43:00,
2013-01-19 05:53:00,37.0,26.0,-100.00,SW,225,9.0,-999.0,66,-99.99,,,-99.99,0.000000,,2013-01-19 10:53:00,
2013-01-19 06:00:00,37.0,27.0,-100.00,SW,225,10.0,-999.0,67,-99.99,,,-99.99,0.000000,,2013-01-19 11:00:00,
2013-01-19 07:00:00,36.0,27.0,-100.00,SW,225,10.0,-999.0,69,-99.99,,,-99.99,0.000000,,2013-01-19 12:00:00,
2013-01-19 07:48:00,36.0,27.0,-100.00,SW,225,10.0,-999.0,69,-99.99,,,-99.99,0.000000,,2013-01-19 12:48:00,
2013-01-19 07:53:00,36.0,27.0,-100.00,SW,225,10.0,-999.0,69,-99.99,,,-99.99,0.000000,,2013-01-19 12:53:00,
2013-01-19 08:00:00,36.0,27.0,-100.00,SSW,202,8.0,-999.0,70,-99.99,,,-99.99,0.000000,,2013-01-19 13:00:00,
2013-01-19 08:43:00,36.0,27.0,-100.00,SSW,202,8.0,-999.0,70,-99.99,,,-99.99,0.000000,,2013-01-19 13:43:00,
2013-01-19 08:54:00,36.0,27.0,-100.00,SSW,202,8.0,-999.0,70,-99.99,,,-99.99,0.000000,,2013-01-19 13:54:00,
2013-01-19 09:00:00,35.0,27.0,-100.00,SSW,202,7.0,-999.0,71,-99.99,,,-99.99,18.559999,,2013-01-19 14:00:00,
2013-01-19 09:43:00,35.0,27.0,-100.00,SSW,202,7.0,-999.0,71,-99.99,,,-99.99,18.559999,,2013-01-19 14:43:00,
2013-01-19 09:54:00,35.0,27.0,-100.00,SSW,202,7.0,-999.0,71,-99.99,,,-99.99,18.559999,,2013-01-19 14:54:00,
2013-01-19 10:00:00,36.0,27.0,-100.00,SSW,202,7.0,-999.0,70,-99.99,,,-99.99,67.279999,,2013-01-19 15:00:00,
2013-01-19 10:43:00,36.0,27.0,-100.00,SSW,202,7.0,-999.0,70,-99.99,,,-99.99,67.279999,,2013-01-19 15:43:00,
2013-01-19 10:53:00,36.0,27.0,-100.00,SSW,202,7.0,-999.0,70,-99.99,,,-99.99,67.279999,,2013-01-19 15:53:00,
2013-01-19 11:00:00,38.0,28.0,-100.00,SSW,202,8.0,-999.0,66,-99.99,,,-99.99,179.800003,,2013-01-19 16:00:00,
2013-01-19 11:43:00,38.0,28.0,-100.00,SSW,202,8.0,-999.0,66,-99.99,,,-99.99,179.800003,,2013-01-19 16:43:00,
2013-01-19 11:54:00,38.0,28.0,-100.00,SSW,202,8.0,-999.0,66,-99.99,,,-99.99,179.800003,,2013-01-19 16:54:00,
2013-01-19 12:00:00,39.0,28.0,-100.00,SSW,202,9.0,-999.0,63,-99.99,,,-99.99,232.000000,,2013-01-19 17:00:00,
2013-01-19 12:38:00,39.0,28.0,-100.00,SSW,202,9.0,-999.0,63,-99.99,,,-99.99,232.000000,,2013-01-19 17:38:00,
2013-01-19 12:50:00,39.0,28.0,-100.00,SSW,202,9.0,-999.0,63,-99.99,,,-99.99,232.000000,,2013-01-19 17:50:00,
2013-01-19 12:55:00,39.0,28.0,-100.00,SSW,202,9.0,-999.0,63,-99.99,,,-99.99,232.000000,,2013-01-19 17:55:00,
2013-01-19 13:00:00,41.0,29.0,-100.00,SSW,202,10.0,-999.0,61,-99.99,,,-99.99,245.919998,,2013-01-19 18:00:00,
2013-01-19 13:48:00,41.0,29.0,-100.00,SSW,202,10.0,-999.0,61,-99.99,,,-99.99,245.919998,,2013-01-19 18:48:00,
2013-01-19 14:00:00,41.0,29.0,-100.00,SSW,202,9.0,-999.0,61,-99.99,,,-99.99,182.119995,,2013-01-19 19:00:00,
2013-01-19 14:50:00,41.0,29.0,-100.00,SSW,202,9.0,-999.0,61,-99.99,,,-99.99,182.119995,,2013-01-19 19:50:00,
2013-01-19 14:59:00,41.0,29.0,-100.00,SSW,202,9.0,-999.0,61,-99.99,,,-99.99,182.119995,,2013-01-19 19:59:00,
2013-01-19 15:00:00,41.0,29.0,-100.00,SSW,202,11.0,-999.0,62,-99.99,,,-99.99,145.000000,,2013-01-19 20:00:00,
2013-01-19 15:50:00,41.0,29.0,-100.00,SSW,202,11.0,-999.0,62,-99.99,,,-99.99,145.000000,,2013-01-19 20:50:00,
2013-01-19 15:59:00,41.0,29.0,-100.00,SSW,202,11.0,-999.0,62,-99.99,,,-99.99,145.000000,,2013-01-19 20:59:00,
2013-01-19 16:00:00,41.0,30.0,-100.00,SW,225,9.0,-999.0,63,-99.99,,,-99.99,62.639999,,2013-01-19 21:00:00,
2013-01-19 16:54:00,41.0,30.0,-100.00,SW,225,9.0,-999.0,63,-99.99,,,-99.99,62.639999,,2013-01-19 21:54:00,
2013-01-19 17:00:00,42.0,30.0,-100.00,SW,225,6.0,-999.0,63,-99.99,,,-99.99,40.599998,,2013-01-19 22:00:00,
2013-01-19 17:49:00,42.0,30.0,-100.00,SW,225,6.0,-999.0,63,-99.99,,,-99.99,40.599998,,2013-01-19 22:49:00,
2013-01-19 17:59:00,42.0,30.0,-100.00,SW,225,6.0,-999.0,63,-99.99,,,-99.99,40.599998,,2013-01-19 22:59:00,
2013-01-19 18:00:00,41.0,31.0,-100.00,SW,225,8.0,-999.0,65,-99.99,,,-99.99,5.800000,,2013-01-19 23:00:00,
2013-01-19 18:52:00,41.0,31.0,-100.00,SW,225,8.0,-999.0,65,-99.99,,,-99.99,5.800000,,2013-01-19 23:52:00,
2013-01-19 19:00:00,41.0,31.0,-100.00,SSW,202,9.0,-999.0,66,-99.99,,,-99.99,0.000000,,2013-01-20 00:00:00,
2013-01-19 19:58:00,41.0,31.0,-100.00,SSW,202,9.0,-999.0,66,-99.99,,,-99.99,0.000000,,2013-01-20 00:58:00,
2013-01-19 20:00:00,41.0,32.0,-100.00,SW,225,10.0,-999.0,68,-99.99,,,-99.99,0.000000,,2013-01-20 01:00:00,
2013-01-19 20:52:00,41.0,32.0,-100.00,SW,225,10.0,-999.0,68,-99.99,,,-99.99,0.000000,,2013-01-20 01:52:00,
2013-01-19 21:00:00,42.0,32.0,-100.00,SW,225,12.0,-999.0,69,-99.99,,,-99.99,0.000000,,2013-01-20 02:00:00,
2013-01-19 21:45:00,42.0,32.0,-100.00,SW,225,12.0,-999.0,69,-99.99,,,-99.99,0.000000,,2013-01-20 02:45:00,
2013-01-19 21:59:00,42.0,32.0,-100.00,SW,225,12.0,-999.0,69,-99.99,,,-99.99,0.000000,,2013-01-20 02:59:00,
2013-01-19 22:00:00,41.0,33.0,-100.00,SW,225,12.0,-999.0,72,-99.99,,,-99.99,0.000000,,2013-01-20 03:00:00,
2013-01-19 22:47:00,41.0,33.0,-100.00,SW,225,12.0,-999.0,72,-99.99,,,-99.99,0.000000,,2013-01-20 03:47:00,
2013-01-19 22:58:00,41.0,33.0,-100.00,SW,225,12.0,-999.0,72,-99.99,,,-99.99,0.000000,,2013-01-20 03:58:00,
2013-01-19 23:00:00,41.0,31.0,-100.00,WSW,247,13.0,-999.0,68,-99.99,,,-99.99,0.000000,,2013-01-20 04:00:00,
2013-01-19 23:45:00,41.0,31.0,-100.00,WSW,247,13.0,-999.0,68,-99.99,,,-99.99,0.000000,,2013-01-20 04:45:00,
2013-01-19 23:59:00,41.0,31.0,-100.00,WSW,247,13.0,-999.0,68,-99.99,,,-99.99,0.000000,,2013-01-20 04:59:00,